This is the latest recevied weather packets stored in our database for station/object DL6MAA-11. If no packets are shown the sender has not sent any weather packets the latest 10 day(s).
| Time | Temp. | Humidity | Pressure | Rain* | Wind** | Luminosity | Snow |
|---|---|---|---|---|---|---|---|
| 1777997825 | 16.11° C | 62% | 1004.6 hPa | 0 mm | - | 53 W/m² | - |
| 1777997511 | 16.11° C | 62% | 1004.6 hPa | 0 mm | - | 54 W/m² | - |
| 1777997216 | 16.11° C | 62% | 1004.6 hPa | 0 mm | - | 53 W/m² | - |
| 1777996923 | 16.11° C | 61% | 1004.6 hPa | 0 mm | - | 65 W/m² | - |
| 1777996625 | 16.67° C | 61% | 1004.5 hPa | 0 mm | - | 79 W/m² | - |
| 1777996322 | 16.67° C | 60% | 1004.5 hPa | 0 mm | - | 100 W/m² | - |
| 1777996014 | 17.22° C | 60% | 1004.5 hPa | 0 mm | - | 120 W/m² | - |
| 1777995708 | 17.22° C | 59% | 1004.3 hPa | 0 mm | - | 144 W/m² | - |
| 1777995422 | 17.22° C | 58% | 1004.3 hPa | 0 mm | - | 139 W/m² | - |
| 1777995117 | 17.22° C | 57% | 1004.3 hPa | 0 mm | - | 149 W/m² | - |
| 1777994818 | 17.22° C | 56% | 1004.3 hPa | 0 mm | - | 149 W/m² | - |
| 1777994527 | 17.78° C | 57% | 1004.3 hPa | 0 mm | - | 148 W/m² | - |
| 1777994226 | 17.78° C | 56% | 1004.3 hPa | 0 mm | - | 181 W/m² | - |
| 1777993930 | 17.78° C | 57% | 1004.4 hPa | 0 mm | - | 237 W/m² | - |
| 1777993616 | 17.22° C | 56% | 1004.4 hPa | 0 mm | - | 223 W/m² | - |
| 1777993318 | 17.22° C | 58% | 1004.4 hPa | 0 mm | - | 204 W/m² | - |
| 1777993024 | 17.22° C | 56% | 1004.4 hPa | 0 mm | - | 160 W/m² | - |
| 1777992723 | 17.22° C | 57% | 1004.4 hPa | 0 mm | - | 149 W/m² | - |
| 1777992422 | 17.22° C | 57% | 1004.4 hPa | 0 mm | - | 118 W/m² | - |
| 1777992110 | 17.22° C | 57% | 1004.2 hPa | 0 mm | - | 135 W/m² | - |
| 1777991830 | 17.22° C | 56% | 1004.2 hPa | 0 mm | - | 156 W/m² | - |
| 1777991512 | 17.22° C | 56% | 1004.2 hPa | 0 mm | - | 160 W/m² | - |
| 1777991217 | 17.22° C | 57% | 1004.4 hPa | 0 mm | - | 183 W/m² | - |
| 1777990922 | 17.22° C | 57% | 1004.4 hPa | 0 mm | - | 186 W/m² | - |
| 1777990625 | 17.22° C | 56% | 1004.4 hPa | 0 mm | - | 156 W/m² | - |
* Rain since midnight (hover to see other rain measurements)
** Current wind speed in m/s (hover to see current wind gust speed)